Fresno, CA

6:08 PM PDT on June 22, 2018 (GMT -0700)
Fresno Yosemite International

Weather History for KFAT - October, 2017

Change the Weather History Date:

Sunday, October 8, 2017

  Actual Average Record
Temperature  
Mean Temperature 69 °F 69 °F  
Max Temperature 82 °F 83 °F 99 °F (1980)
Min Temperature 55 °F 56 °F 35 °F (1949)
Degree Days  
Heating Degree Days 0    
Month to date heating degree days 6  
Since 1 July heating degree days 10  
Cooling Degree Days 4    
Month to date cooling degree days 19  
Year to date cooling degree days 2433  
Growing Degree Days 18 (Base 50)    
Moisture  
Dew Point 42 °F    
Average Humidity 44    
Maximum Humidity 62    
Minimum Humidity 26    
Precipitation  
Precipitation 0.00 in 0.01 in 0.24 in (1904)
Month to date precipitation 0.00 0.09  
Year to date precipitation 12.80 8.12  
Snow  
Snow 0.00 in - - ()
Month to date snowfall 0.0  
Since 1 July snowfall 0.0  
Since 1 September snowfall 0.0  
Snow Depth 0.00 in    
Sea Level Pressure  
Sea Level Pressure 29.76 in    
Wind  
Wind Speed 6 mph (NW)    
Max Wind Speed 16 mph    
Max Gust Speed 21 mph    
Visibility 9 miles    
Events      
T = Trace of Precipitation, MM = Missing Value Source: NWS Daily Summary

Daily Weather History Graph

Daily Weather History Graph

Search for Another Location

Airport or City:

Astronomy

Oct. 08, 2017 Rise Set
Actual Time 7:00 AM PDT 6:31 PM PDT
Civil Twilight 6:34 AM PDT 6:57 PM PDT
Nautical Twilight 6:04 AM PDT 7:27 PM PDT
Astronomical Twilight 5:34 AM PDT 7:57 PM PDT
Moon 9:01 PM PDT (10/8) 10:04 AM PDT (10/8)
Length of Visible Light 12h 22m
Length of Day
11h 31m
Waning Gibbous, 88% of the Moon is Illuminated
Oct 8
Waning Gibbous
Oct 12
Last Quarter
Oct 19
New
Oct 27
First Quarter
Nov 3
Full

Hourly Weather History & Observations

Time (PDT) Temp. Dew Point Humidity Pressure Visibility Wind Dir Wind Speed Gust Speed Precip Events Conditions
12:53 AM 63.0 °F 44.1 °F 50% 29.76 in 10.0 mi Calm Calm - N/A   Clear
1:53 AM 60.1 °F 46.9 °F 62% 29.76 in 9.0 mi NE 3.5 mph - N/A   Clear
2:53 AM 59.0 °F 44.1 °F 58% 29.75 in 10.0 mi ENE 3.5 mph - N/A   Clear
3:53 AM 57.9 °F 44.1 °F 60% 29.74 in 10.0 mi ENE 4.6 mph - N/A   Clear
4:53 AM 57.0 °F 42.1 °F 57% 29.74 in 10.0 mi Calm Calm - N/A   Clear
5:53 AM 57.0 °F 42.1 °F 57% 29.75 in 10.0 mi Calm Calm - N/A   Clear
6:53 AM 55.0 °F 42.1 °F 62% 29.74 in 10.0 mi ENE 4.6 mph - N/A   Clear
7:53 AM 57.9 °F 42.1 °F 56% 29.76 in 9.0 mi WSW 3.5 mph - N/A   Clear
8:53 AM 62.1 °F 42.1 °F 48% 29.78 in 6.0 mi Calm Calm - N/A   Haze
9:53 AM 66.9 °F 43.0 °F 42% 29.79 in 7.0 mi NW 4.6 mph - N/A   Clear
10:53 AM 72.0 °F 41.0 °F 33% 29.80 in 8.0 mi WNW 4.6 mph - N/A   Clear
11:53 AM 75.0 °F 41.0 °F 29% 29.78 in 7.0 mi Variable 5.8 mph - N/A   Clear
12:53 PM 79.0 °F 45.0 °F 30% 29.77 in 10.0 mi WNW 6.9 mph - N/A   Clear
1:53 PM 80.1 °F 46.9 °F 31% 29.75 in 10.0 mi WNW 13.8 mph - N/A   Clear
2:53 PM 81.0 °F 43.0 °F 26% 29.73 in 10.0 mi West 15.0 mph - N/A   Clear
3:53 PM 81.0 °F 43.0 °F 26% 29.73 in 10.0 mi NW 9.2 mph - N/A   Clear
4:53 PM 80.1 °F 43.0 °F 27% 29.72 in 10.0 mi NW 10.4 mph - N/A   Partly Cloudy
5:53 PM 78.1 °F 43.0 °F 29% 29.73 in 8.0 mi NW 11.5 mph - N/A   Clear
6:53 PM 73.9 °F 43.0 °F 33% 29.74 in 9.0 mi WNW 12.7 mph - N/A   Clear
7:53 PM 73.0 °F 39.9 °F 30% 29.75 in 8.0 mi WNW 13.8 mph - N/A   Clear
8:53 PM 69.1 °F 39.9 °F 35% 29.75 in 9.0 mi WNW 8.1 mph - N/A   Clear
9:53 PM 66.0 °F 39.9 °F 38% 29.77 in 8.0 mi West 8.1 mph - N/A   Clear
10:53 PM 63.0 °F 39.0 °F 41% 29.78 in 8.0 mi WNW 4.6 mph - N/A   Clear
11:53 PM 61.0 °F 37.0 °F 41% 29.79 in 9.0 mi WNW 4.6 mph - N/A   Partly Cloudy